Flag for Sweden Weather past 2 weeks in Stockholm, Sweden

Now
32 °F

Chilly.


Feels Like: 26 °F
Forecast: 31 / 36 °F
Wind: 7 mph from Southwest

Location: Stockholm Bromma Airport

Current Time: Mar 4, 2015 at 12:40:21 AM

Latest Report: Mar 3, 2015 at 11:50 PM


Visibility: N/A

Pressure: 29.59 "Hg

Humidity: 93%

Dew point: 30 °F

Location of StockholmLocation

Historic Weather in Stockholm — Graph

°F

Stockholm temperature yesterday

Maximum temperature yesterday: 37 °F (at 10:20 AM)
Minimum temperature yesterday: 32 °F (at 11:20 PM)
Average temperature yesterday: 35 °F

Past Weeks' High & Low Weather Summary

 TemperatureHumidityPressure
High46 °F (Feb 19, 12:50 PM)100% (Feb 19, 5:20 AM)30.42 "Hg (Feb 19, 5:20 AM)
Low28 °F (Feb 26, 3:20 AM)57% (Feb 25, 1:20 PM)29.12 "Hg (Feb 22, 2:20 AM)
Average37 °F86%29.70 "Hg
* Reported Feb 16 11:20 PM — Mar 3 11:20 PM, Stockholm, Weather by CustomWeather, © 2015

Note: Actual official high and low records may vary slightly from our data, if they occured in-between our weather recording intervals... More about our weather records

Advertising

Stockholm weather history for previous 24 hours

 ConditionsComfort  
Time TempWeatherWind HumidityBarometerVisibility
11:20 PM
Tue, Mar 3
32 °FPassing clouds.8 mph93%29.59 "HgN/A
10:20 PM34 °FLow clouds.9 mph93%29.59 "HgN/A
9:50 PM34 °FMostly cloudy.7 mph100%29.56 "HgN/A
9:20 PM34 °FMostly cloudy.9 mph100%29.56 "HgN/A
8:50 PM34 °FFog.9 mph100%29.56 "Hg5 mi
7:50 PM34 °FDrizzle. Low clouds.8 mph100%29.56 "HgN/A
7:20 PM34 °FDrizzle. Low clouds.7 mph100%29.56 "HgN/A
6:50 PM34 °FDrizzle. Low clouds.7 mph100%29.56 "Hg4 mi
6:20 PM34 °FLight rain. Low clouds.7 mph93%29.56 "Hg3 mi
5:50 PM34 °FLight rain. Passing clouds.7 mph100%29.53 "Hg4 mi
5:20 PM36 °FDrizzle. Low clouds.8 mph93%29.53 "Hg5 mi
4:50 PM36 °FDrizzle. Partly sunny.7 mph93%29.53 "Hg6 mi
4:20 PM36 °FLight rain. Partly sunny.7 mph93%29.53 "Hg3 mi
3:50 PM36 °FDrizzle. Partly sunny.7 mph93%29.53 "HgN/A
3:20 PM36 °FDrizzle. Partly sunny.6 mph100%29.50 "Hg4 mi
2:50 PM36 °FLight rain. Partly sunny.6 mph93%29.50 "Hg3 mi
2:20 PM36 °FLight rain. More clouds than sun.6 mph93%29.50 "Hg4 mi
1:50 PM36 °FDrizzle. Partly sunny.5 mph93%29.50 "Hg6 mi
1:20 PM37 °FDrizzle. Broken clouds.3 mph93%29.50 "Hg4 mi
12:50 PM37 °FDrizzle. Partly sunny.3 mph87%29.50 "Hg4 mi
12:20 PM37 °FDrizzle. Partly sunny.1 mph93%29.47 "Hg4 mi
11:50 AM37 °FDrizzle. Partly sunny.2 mph93%29.47 "Hg4 mi
11:20 AM37 °FDrizzle. Partly sunny.3 mph93%29.47 "Hg4 mi
10:50 AM37 °FDrizzle. Partly sunny.3 mph93%29.47 "Hg5 mi
10:20 AM37 °FDrizzle. Partly sunny.3 mph93%29.47 "Hg4 mi
9:50 AM36 °FFog.3 mph100%29.47 "Hg4 mi
9:20 AM36 °FFog.3 mph100%29.45 "Hg3 mi
8:50 AM36 °FFog.5 mph93%29.45 "Hg3 mi
8:20 AM36 °FDrizzle. Partly sunny.5 mph93%29.45 "Hg2 mi
7:50 AM36 °FFog.5 mph93%29.45 "Hg2 mi
7:20 AM36 °FFog.5 mph93%29.45 "Hg2 mi
6:50 AM36 °FFog.6 mph93%29.42 "Hg3 mi
6:20 AM36 °FFog.6 mph93%29.42 "Hg5 mi
5:50 AM36 °FPassing clouds.6 mph93%29.42 "HgN/A
5:20 AM36 °FFog.6 mph93%29.42 "Hg6 mi
4:50 AM34 °FFog.6 mph100%29.42 "Hg5 mi
4:20 AM34 °FFog.5 mph100%29.42 "Hg4 mi
3:50 AM34 °FLow clouds.5 mph100%29.42 "Hg6 mi
3:20 AM34 °FLow clouds.5 mph100%29.42 "HgN/A
2:50 AM34 °FLow clouds.6 mph100%29.39 "HgN/A
2:20 AM34 °FLow clouds.5 mph100%29.39 "HgN/A
1:50 AM34 °FFog.7 mph100%29.39 "Hg6 mi
1:20 AM34 °FLow clouds.8 mph100%29.39 "HgN/A
12:50 AM36 °FLow clouds.7 mph93%29.39 "HgN/A
12:20 AM36 °FLow clouds.5 mph93%29.39 "HgN/A
Weather by CustomWeather, © 2015

See weather overviewHow to use our weather pages